TimeEDT,TemperatureF,Dew PointF,Humidity,Sea Level PressureIn,VisibilityMPH,Wind Direction,Wind SpeedMPH,Gust SpeedMPH,PrecipitationIn,Events,Conditions,WindDirDegrees,DateUTC
12:53 AM,73.9,68.0,82,29.75,10.0,NNE,3.5,-,N/A,,Clear,30,2013-06-27 04:53:00
1:53 AM,73.9,68.0,82,29.74,10.0,Calm,Calm,-,N/A,,Scattered Clouds,0,2013-06-27 05:53:00
2:53 AM,71.1,66.9,87,29.74,10.0,NNE,3.5,-,N/A,,Clear,30,2013-06-27 06:53:00
3:53 AM,70.0,66.9,90,29.74,10.0,NNE,5.8,-,N/A,,Clear,30,2013-06-27 07:53:00
4:53 AM,69.1,66.0,90,29.74,9.0,Calm,Calm,-,N/A,,Clear,0,2013-06-27 08:53:00
5:53 AM,69.1,66.0,90,29.75,9.0,Calm,Calm,-,N/A,,Mostly Cloudy,0,2013-06-27 09:53:00
6:53 AM,71.1,66.9,87,29.76,7.0,Calm,Calm,-,N/A,,Mostly Cloudy,0,2013-06-27 10:53:00
7:15 AM,71.6,68.0,88,29.77,6.0,Calm,Calm,-,N/A,,Mostly Cloudy,0,2013-06-27 11:15:00
7:34 AM,71.6,68.0,88,29.76,2.0,Calm,Calm,-,N/A,,Mostly Cloudy,0,2013-06-27 11:34:00
7:43 AM,71.6,68.0,88,29.76,1.0,SSE,3.5,-,N/A,,Mostly Cloudy,160,2013-06-27 11:43:00
7:45 AM,71.6,68.0,88,29.76,0.8,Calm,Calm,-,N/A,,Mostly Cloudy,0,2013-06-27 11:45:00
7:49 AM,71.6,68.0,88,29.76,0.8,Calm,Calm,-,N/A,,Overcast,0,2013-06-27 11:49:00
7:53 AM,71.1,68.0,90,29.75,0.8,Calm,Calm,-,N/A,,Overcast,0,2013-06-27 11:53:00
8:50 AM,71.6,69.8,94,29.76,1.2,Calm,Calm,-,N/A,,Overcast,0,2013-06-27 12:50:00
8:53 AM,72.0,69.1,91,29.75,1.2,WSW,3.5,-,N/A,,Overcast,250,2013-06-27 12:53:00
9:23 AM,73.4,69.8,88,29.76,2.0,WSW,5.8,-,N/A,,Mostly Cloudy,250,2013-06-27 13:23:00
9:41 AM,75.2,69.8,83,29.77,6.0,SW,4.6,-,N/A,,Haze,230,2013-06-27 13:41:00
9:53 AM,77.0,69.1,76,29.75,7.0,WSW,4.6,-,N/A,,Partly Cloudy,240,2013-06-27 13:53:00
10:53 AM,82.0,69.1,65,29.74,10.0,West,3.5,-,N/A,,Scattered Clouds,270,2013-06-27 14:53:00
11:53 AM,82.0,68.0,62,29.75,10.0,West,8.1,-,N/A,,Mostly Cloudy,270,2013-06-27 15:53:00
12:53 PM,84.9,66.0,53,29.73,10.0,NNW,6.9,-,N/A,,Mostly Cloudy,330,2013-06-27 16:53:00
1:53 PM,86.0,64.9,49,29.71,10.0,West,8.1,16.1,N/A,,Mostly Cloudy,260,2013-06-27 17:53:00
2:53 PM,84.9,66.0,53,29.71,10.0,West,13.8,-,N/A,,Scattered Clouds,280,2013-06-27 18:53:00
3:53 PM,84.0,64.0,51,29.71,10.0,West,18.4,23.0,N/A,,Scattered Clouds,260,2013-06-27 19:53:00
4:53 PM,82.9,66.9,58,29.70,10.0,West,16.1,23.0,N/A,,Mostly Cloudy,270,2013-06-27 20:53:00
5:53 PM,82.0,69.1,65,29.69,10.0,WNW,10.4,-,N/A,,Mostly Cloudy,290,2013-06-27 21:53:00
6:53 PM,81.0,66.9,62,29.68,10.0,WNW,10.4,-,N/A,,Mostly Cloudy,290,2013-06-27 22:53:00
7:53 PM,79.0,66.0,64,29.68,10.0,WNW,6.9,-,N/A,,Mostly Cloudy,290,2013-06-27 23:53:00
8:53 PM,78.1,66.0,66,29.69,10.0,NW,6.9,-,N/A,,Mostly Cloudy,320,2013-06-28 00:53:00
9:53 PM,73.9,66.0,76,29.70,10.0,East,8.1,-,N/A,,Mostly Cloudy,80,2013-06-28 01:53:00
10:53 PM,72.0,66.9,84,29.70,10.0,NNE,5.8,-,N/A,,Mostly Cloudy,20,2013-06-28 02:53:00
11:53 PM,71.1,66.0,84,29.67,10.0,Calm,Calm,-,N/A,,Mostly Cloudy,0,2013-06-28 03:53:00